Waarnemingen

Advertentie
Mijn weer
F16-A, Nederland (6206): temperatuur & dauwpunt: 20.05.2017 16:00:00 - 26.05.2017 16:00:00 (CEST)F16-A, Nederland (6206): windsnelheid & windstoten: 20.05.2017 16:00:00 - 26.05.2017 16:00:00 (CEST)F16-A, Nederland (6206): windrichting: 20.05.2017 16:00:00 - 26.05.2017 16:00:00 (CEST)F16-A, Nederland (6206): luchtdruk: 20.05.2017 16:00:00 - 26.05.2017 16:00:00 (CEST)F16-A, Nederland (6206): zicht: 20.05.2017 16:00:00 - 26.05.2017 16:00:00 (CEST)
Datum & Tijd tt [°C] td [°C] ff [km/u] ff [kn] fx [km/u] fx [kn] dd ppp [hPa] vv [km]
26.05.2017 16:00:00 12,5 12,4 16 9 18 10 OZO 1023,1 10
26.05.2017 15:00:00 12,1 12,1 16 9 18 10 OZO 1023,4 0,1
26.05.2017 14:00:00 12,0 11,9 15 8 18 10 OZO 1023,8 0,1
26.05.2017 13:00:00 12,4 12,1 15 8 14 8 ZO 1024,1 0,7
26.05.2017 12:00:00 13,2 12,4 16 9 14 8 ZO 1024,2 10
26.05.2017 11:00:00 13,2 12,4 13 7 22 12 OZO 1024,3 10
26.05.2017 10:00:00 13,3 12,3 22 12 22 12 ZO 1024,2 10
26.05.2017 09:00:00 13,3 12,1 16 9 18 10 OZO 1024,4 10
26.05.2017 08:00:00 13,3 12,3 16 9 14 8 ZO 1024,1 10
26.05.2017 07:00:00 13,1 12,2 11 6 11 6 OZO 1023,9 10
26.05.2017 06:00:00 12,8 12,3 9 5 11 6 OZO 1024,1 9
26.05.2017 05:00:00 12,8 12,2 11 6 14 8 O 1024,2 8
26.05.2017 04:00:00 13,0 12,4 15 8 18 10 ONO 1024,3 10
26.05.2017 03:00:00 13,2 12,4 13 7 14 8 ONO 1024,2 10
26.05.2017 02:00:00 13,5 12,6 11 6 11 6 ONO 1024,4 10
26.05.2017 01:00:00 13,7 12,5 11 6 11 6 NO 1024,7 10
26.05.2017 00:00:00 13,9 12,2 5 3 18 10 NO 1024,7 10
25.05.2017 23:00:00 14,0 12,7 5 3 18 10 - 1024,7 10
25.05.2017 22:00:00 14,6 12,1 5 3 7 4 W 1024,7 10
25.05.2017 21:00:00 14,9 12,6 9 5 11 6 WZW 1024,5 10
25.05.2017 20:00:00 14,3 12,4 11 6 11 6 ZW 1024,8 10
25.05.2017 19:00:00 14,3 12,2 9 5 7 4 WZW 1025,0 10
25.05.2017 18:00:00 14,5 12,2 9 5 7 4 WZW 1025,3 10
25.05.2017 17:00:00 14,0 12,2 8 4 7 4 WZW 1025,6 10
25.05.2017 16:00:00 14,0 12,2 9 5 7 4 W 1025,8 10
25.05.2017 15:00:00 13,5 12,0 8 4 7 4 WZW 1026,0 10
25.05.2017 14:00:00 13,1 11,6 8 4 7 4 W 1026,2 10
25.05.2017 13:00:00 12,9 11,3 8 4 11 6 W 1026,2 10
25.05.2017 12:00:00 13,1 11,0 9 5 18 10 - 1026,4 10
25.05.2017 11:00:00 12,9 10,4 11 6 11 6 W 1026,0 10
25.05.2017 10:00:00 13,2 9,8 9 5 11 6 WNW 1025,6 10
25.05.2017 09:00:00 13,1 10,0 13 7 14 8 WNW 1025,4 10
25.05.2017 08:00:00 12,8 10,0 15 8 14 8 NW 1025,4 10
25.05.2017 07:00:00 12,6 10,1 16 9 25 14 NW 1025,3 10
25.05.2017 06:00:00 12,2 10,4 21 11 22 12 WNW 1025,0 10
25.05.2017 05:00:00 11,9 10,8 22 12 22 12 WNW 1024,8 10
25.05.2017 04:00:00 11,9 10,9 22 12 22 12 WNW 1025,0 10
25.05.2017 03:00:00 11,9 10,7 18 10 18 10 WNW 1025,2 10
25.05.2017 02:00:00 11,7 10,7 16 9 18 10 WNW 1025,3 10
25.05.2017 01:00:00 11,7 10,6 11 6 11 6 NW 1025,3 10
25.05.2017 00:00:00 12,1 10,0 11 6 11 6 NNW 1025,4 10
24.05.2017 23:00:00 12,1 9,9 15 8 18 10 NNW 1025,3 10
24.05.2017 22:00:00 12,2 10,2 21 11 22 12 NNW 1024,9 10
24.05.2017 21:00:00 12,4 10,4 24 13 25 14 NNW 1024,8 10
24.05.2017 20:00:00 12,5 10,8 28 15 25 14 NNW 1024,7 10
24.05.2017 19:00:00 12,6 11,0 26 14 32 18 NW 1024,4 10
24.05.2017 18:00:00 12,6 11,1 29 16 32 18 NW 1024,4 10
24.05.2017 17:00:00 12,6 11,1 34 18 36 19 NW 1024,3 10
24.05.2017 16:00:00 12,7 11,2 34 18 36 19 WNW 1024,0 10
24.05.2017 15:00:00 13,0 11,3 37 20 40 21 WNW 1023,8 10
24.05.2017 14:00:00 12,9 11,1 39 21 36 19 WNW 1023,5 10
24.05.2017 13:00:00 12,9 10,8 37 20 36 19 WNW 1023,4 10
24.05.2017 12:00:00 13,2 10,5 26 14 25 14 W 1023,3 10
24.05.2017 11:00:00 12,3 10,7 22 12 22 12 WZW 1023,0 10
24.05.2017 10:00:00 11,9 10,4 22 12 22 12 WZW 1022,9 10
24.05.2017 09:00:00 12,2 9,8 13 7 18 10 W 1022,9 10
24.05.2017 08:00:00 12,1 9,0 15 8 14 8 W 1022,8 10
24.05.2017 07:00:00 12,0 8,2 16 9 18 10 WZW 1022,3 10
24.05.2017 06:00:00 12,4 7,4 15 8 14 8 WZW 1022,0 10
24.05.2017 05:00:00 12,2 8,2 16 9 22 12 WZW 1022,0 10
24.05.2017 04:00:00 12,1 8,3 22 12 22 12 WZW 1022,2 10
24.05.2017 03:00:00 11,9 8,2 18 10 18 10 WZW 1022,1 10
24.05.2017 02:00:00 11,6 9,0 21 11 18 10 WZW 1022,5 10
24.05.2017 01:00:00 11,5 8,6 18 10 18 10 WZW 1022,6 10
24.05.2017 00:00:00 11,5 8,8 21 11 22 12 WZW 1022,4 10
23.05.2017 23:00:00 11,5 8,8 18 10 18 10 W 1022,3 10
23.05.2017 22:00:00 11,4 9,0 21 11 - - W 1022,1 10
23.05.2017 21:00:00 11,5 9,0 21 11 18 10 W 1021,5 10
23.05.2017 20:00:00 11,8 9,0 18 10 25 14 W 1021,1 10
23.05.2017 19:00:00 11,9 9,4 21 11 22 12 W 1021,0 10
23.05.2017 18:00:00 11,7 9,4 24 13 25 14 W 1020,7 10
23.05.2017 17:00:00 11,9 8,9 26 14 32 18 W 1020,2 10
23.05.2017 16:00:00 12,0 9,0 34 18 32 18 WNW 1020,1 10
23.05.2017 15:00:00 11,9 9,0 34 18 36 19 WNW 1019,6 10
23.05.2017 14:00:00 11,6 8,8 37 20 40 21 WNW 1018,7 10
23.05.2017 13:00:00 11,5 8,7 41 22 43 23 WNW 1017,9 10
23.05.2017 12:00:00 11,7 9,2 41 22 43 23 WNW 1017,1 10
23.05.2017 11:00:00 11,9 9,5 48 26 47 25 WNW 1016,3 10
23.05.2017 10:00:00 12,4 10,4 44 24 43 23 WNW 1015,3 10
23.05.2017 09:00:00 12,4 10,5 42 23 40 21 WNW 1014,6 10
23.05.2017 08:00:00 12,6 10,4 39 21 36 19 WNW 1013,6 10
23.05.2017 07:00:00 12,8 10,2 22 12 32 18 W 1013,4 10
23.05.2017 06:00:00 13,6 9,7 34 18 40 21 WZW 1013,1 10
23.05.2017 05:00:00 14,1 10,0 41 22 36 19 ZW 1012,8 10
23.05.2017 04:00:00 14,9 10,7 35 19 32 18 ZZW 1012,9 10
23.05.2017 03:00:00 14,7 11,1 37 20 36 19 ZZW 1013,2 10
23.05.2017 02:00:00 13,4 10,9 39 21 40 21 Z 1014,0 10
23.05.2017 01:00:00 13,4 10,5 42 23 40 21 ZZO 1014,1 10
23.05.2017 00:00:00 13,3 10,0 34 18 32 18 ZO 1014,7 10
22.05.2017 23:00:00 14,0 9,6 39 21 36 19 ZO 1015,1 10
22.05.2017 22:00:00 13,7 10,4 37 20 36 19 ZO 1015,1 10
22.05.2017 21:00:00 13,2 10,8 35 19 36 19 OZO 1015,7 10
22.05.2017 20:00:00 13,3 10,9 34 18 32 18 ZO 1016,2 10
22.05.2017 19:00:00 13,1 11,0 28 15 25 14 ZO 1016,9 10
22.05.2017 18:00:00 12,8 11,2 24 13 25 14 ZO 1017,5 10
22.05.2017 17:00:00 13,0 11,0 18 10 18 10 ZO 1018,1 10
22.05.2017 16:00:00 12,8 11,0 21 11 22 12 ZO 1018,6 10
22.05.2017 15:00:00 12,5 10,9 24 13 22 12 ZO 1019,3 10
22.05.2017 14:00:00 12,4 10,7 18 10 25 14 ZZO 1019,7 10
22.05.2017 13:00:00 12,3 10,4 28 15 29 16 ZZO 1020,0 10
22.05.2017 12:00:00 12,1 10,2 34 18 29 16 ZO 1020,4 10
22.05.2017 11:00:00 12,0 9,8 29 16 29 16 ZZO 1020,6 10
22.05.2017 10:00:00 12,2 9,5 31 17 29 16 ZO 1020,8 10
22.05.2017 09:00:00 12,4 9,1 34 18 32 18 ZO 1021,0 10
22.05.2017 08:00:00 11,9 9,9 31 17 29 16 ZO 1021,1 10
22.05.2017 07:00:00 11,6 10,5 28 15 25 14 ZO 1021,5 10
22.05.2017 06:00:00 11,5 10,4 26 14 29 16 - 1022,0 10
22.05.2017 05:00:00 11,3 10,2 24 13 25 14 ZO 1022,3 10
22.05.2017 04:00:00 11,2 10,2 22 12 22 12 ZO 1022,7 10
22.05.2017 03:00:00 11,1 10,5 22 12 22 12 ZO 1023,2 10
22.05.2017 02:00:00 11,0 10,5 21 11 25 14 ZO 1023,8 10
22.05.2017 01:00:00 11,0 10,5 26 14 25 14 ZO 1023,9 10
22.05.2017 00:00:00 10,9 10,4 15 8 18 10 ZO 1024,1 9
21.05.2017 23:00:00 11,0 10,4 13 7 14 8 Z 1024,3 10
21.05.2017 22:00:00 11,0 10,4 16 9 14 8 ZZO 1024,6 10
21.05.2017 21:00:00 11,0 10,4 15 8 14 8 Z 1024,8 10
21.05.2017 20:00:00 11,0 10,3 15 8 14 8 Z 1025,1 10
21.05.2017 19:00:00 11,1 10,3 16 9 18 10 Z 1025,4 10
21.05.2017 18:00:00 11,0 10,1 15 8 14 8 Z 1025,7 10
21.05.2017 17:00:00 10,9 10,0 16 9 18 10 Z 1026,0 10
21.05.2017 16:00:00 10,9 9,9 16 9 18 10 ZZW 1026,2 10
21.05.2017 15:00:00 10,7 9,8 16 9 18 10 ZZW 1026,1 9
21.05.2017 14:00:00 10,8 9,8 21 11 18 10 ZZW 1026,3 10
21.05.2017 13:00:00 10,7 9,6 22 12 22 12 ZW 1026,4 10
21.05.2017 12:00:00 10,7 9,6 22 12 22 12 ZW 1026,2 10
21.05.2017 11:00:00 10,6 9,5 26 14 25 14 ZZW 1025,7 10
21.05.2017 10:00:00 10,7 9,4 26 14 29 16 - 1025,1 10
21.05.2017 09:00:00 10,7 9,4 29 16 29 16 ZZW 1024,5 10
21.05.2017 08:00:00 10,8 9,4 29 16 29 16 ZZW 1024,0 10
21.05.2017 07:00:00 10,8 9,5 34 18 36 19 ZZW 1023,4 10
21.05.2017 06:00:00 10,8 9,6 34 18 36 19 ZZW 1022,9 10
21.05.2017 05:00:00 10,8 9,6 34 18 36 19 ZZW 1022,8 10
21.05.2017 04:00:00 11,0 9,6 42 23 43 23 ZZW 1022,7 10
21.05.2017 03:00:00 11,1 9,5 42 23 43 23 ZZW 1022,5 10
21.05.2017 02:00:00 11,3 9,2 50 27 50 27 ZZW 1022,3 10
21.05.2017 01:00:00 11,4 9,0 50 27 50 27 Z 1022,1 10
21.05.2017 00:00:00 11,4 9,0 50 27 50 27 Z 1021,7 10
20.05.2017 23:00:00 11,4 8,9 46 25 47 25 Z 1021,8 10
20.05.2017 22:00:00 11,3 9,2 44 24 43 23 Z 1021,5 10
20.05.2017 21:00:00 11,1 9,3 37 20 40 21 Z 1021,0 10
20.05.2017 20:00:00 11,3 9,1 41 22 40 21 Z 1020,8 10
20.05.2017 19:00:00 11,3 9,0 41 22 40 21 Z 1020,5 10
20.05.2017 18:00:00 11,1 9,8 37 20 36 19 Z 1020,2 10
20.05.2017 17:00:00 11,1 9,8 35 19 40 21 Z 1020,0 10
20.05.2017 16:00:00 10,9 9,7 41 22 40 21 Z 1019,5 10

tt = temperatuur
td = dauwpunt
ff = windsnelheid
fx = windstoten
dd = windrichting
ppp = luchtdruk
vv = zicht

Weerstations in de omgeving